Vorticity
6 6 5 7 6 14 6 6 4 8 6 8 5 6 7 9 6 6 6 6 5 5 5 7 7 9 10 9 8 5 5 5 5 4 4 5 10 6 6 9 9 10 6
4 4 4 6 4 6 4 2 6 1 6 3 4 7 6 6 7 9 7 7 6 5 4 4 7 9 9 8 8 7 7 5 6 7 7 8 7 6 4 8 12 10 7
8 4 2 4 5 4 2 4 4 6 5 6 8 7 7 8 8 6 7 7 8 6 8 7 6 5 7 8 9 8 7 5 5 4 4 7 10 9 8 11 9 8 5
5 7 5 5 5 5 5 4 5 4 6 7 10 8 9 5 7 11 8 7 7 6 7 8 7 6 6 7 6 7 6 6 7 6 5 4 6 12 12 10 10 8 5
5 12 -3 5 8 7 3 5 5 5 4 6 5 10 -2 6 6 5 8 9 9 8 8 9 8 7 9 9 8 8 8 8 8 8 8 8 7 12 12 9 7 5 5
-1 7 10 12 -15 27 7 4 1 5 6 5 4 5 5 7 7 6 7 7 7 7 7 8 8 8 7 8 8 10 10 9 9 10 11 11 8 5 3 3 3 3 2
18 72 73 66 21 9 49 0 6 3 6 7 6 4 4 4 3 5 5 6 6 6 6 6 6 7 9 8 7 7 7 7 5 5 6 6 7 8 8 6 6 5 5
-0 4 4 3 8 8 31 19 5 5 5 -2 8 6 9 6 7 6 4 3 4 4 5 6 6 6 7 7 6 5 5 5 6 6 6 6 6 6 9 10 8 9 9
23 5 12 7 7 10 6 22 19 2 19 2 -0 -2 0 8 5 4 -1 7 3 2 3 3 3 4 5 6 8 7 8 6 8 8 7 6 5 4 5 5 4 5 5
10 20 -4 16 11 14 10 9 13 20 11 19 55 1 3 3 -1 -2 6 12 -1 4 5 4 2 3 3 3 2 2 2 3 2 3 3 3 3 2 2 2 2 2 3
-5 2 9 4 6 7 7 13 11 2 6 2 18 19 76 -5 42 7 16 8 4 13 1 -3 5 7 10 5 4 5 4 3 3 3 3 3 3 3 3 3 3 4 4
-5 0 -6 -8 -6 -2 2 6 6 8 8 11 9 8 4 34 25 23 12 4 33 7 15 5 8 0 3 6 -1 4 4 3 5 5 5 6 6 6 6 6 7 6 6
1 -1 1 0 3 4 3 5 3 4 9 5 4 13 10 10 32 -15 26 22 26 26 15 -3 21 22 12 13 3 3 -2 4 5 5 5 6 5 5 5 6 7 8 6
-7 -3 -0 3 5 4 5 5 7 6 6 5 6 6 6 6 8 10 14 11 12 -17 1 8 14 8 21 18 9 13 24 18 8 8 6 9 8 8 7 7 7 5 4
9 9 9 8 6 7 7 5 6 7 6 5 7 7 7 8 7 5 6 7 11 8 10 8 8 6 10 8 4 4 6 15 12 14 12 1 -1 2 5 12 8 6 8
11 15 14 12 8 10 9 12 12 10 11 9 8 7 7 8 8 8 7 7 5 6 6 7 8 7 9 7 14 16 1 5 7 5 4 5 4 11 10 10 10 13 13
15 7 3 5 5 2 5 5 4 6 7 7 6 5 7 6 6 8 8 8 7 7 7 8 7 7 8 6 6 8 8 7 4 2 3 5 6 7 7 8 7 11 8
7 12 21 17 13 13 12 12 11 9 10 8 7 8 8 7 7 6 6 6 7 7 6 5 6 7 8 8 8 8 8 8 8 9 10 9 10 9 10 9 7 8 7
10 11 15 -8 -3 4 8 10 11 11 9 9 10 9 7 8 9 9 8 6 6 6 6 6 7 6 6 6 5 5 6 6 6 6 5 7 7 7 7 7 7 7 6
15 21 29 25 21 14 9 7 7 7 8 9 9 9 11 12 9 9 8 8 7 7 6 5 5 5 5 6 6 6 6 6 6 6 5 4 4 4 4 3 3 4 5
2 1 2 2 4 13 21 26 25 19 14 10 7 6 7 6 8 11 11 10 11 10 8 6 6 6 4 4 5 6 6 6 5 5 5 7 7 6 6 3 4 5 4
15 13 9 9 6 3 4 4 4 7 9 12 16 18 19 20 19 15 13 10 8 7 8 9 10 10 10 9 8 5 4 5 6 6 7 7 8 7 5 5 5 5 6
16 15 14 15 13 9 8 10 12 12 11 10 9 7 7 7 6 6 7 9 10 13 13 16 18 16 15 14 12 10 8 8 7 6 6 6 6 7 6 8 7 8 8
8 9 14 16 15 14 13 11 10 8 8 10 11 10 11 12 12 11 12 13 14 13 10 8 8 9 7 7 10 16 22 23 14 10 9 9 7 5 6 6 7 7 7
21 20 17 12 11 12 11 11 12 13 16 15 14 15 10 11 14 13 14 10 8 7 7 8 8 8 7 8 10 9 9 11 12 15 26 24 11 7 12 12 12 9 10
1 6 8 19 23 21 17 14 10 11 16 15 12 16 4 0 15 17 21 25 23 18 19 26 27 17 17 16 14 11 9 7 5 7 9 10 9 10 21 17 15 11 10
Height
5924 5927 5929 5933 5935 5937 5939 5939 5942 5944 5946 5949 5950 5951 5952 5954 5955 5957 5959 5961 5962 5964 5965 5967 5969 5969 5969 5970 5970 5971 5972 5973 5973 5974 5973 5974 5974 5974 5974 5973 5972 5970 5969
5918 5921 5925 5929 5932 5933 5935 5937 5939 5941 5944 5946 5949 5950 5950 5950 5953 5955 5957 5959 5960 5961 5962 5964 5965 5967 5968 5969 5969 5969 5970 5970 5971 5972 5971 5972 5972 5972 5971 5971 5970 5969 5968
5913 5916 5919 5923 5926 5929 5931 5933 5937 5939 5941 5942 5944 5947 5949 5951 5951 5954 5955 5957 5959 5961 5962 5962 5964 5964 5965 5967 5968 5968 5968 5968 5969 5969 5969 5969 5970 5969 5969 5969 5968 5967 5968
5906 5909 5915 5920 5923 5924 5927 5930 5933 5936 5937 5937 5940 5943 5946 5949 5951 5953 5953 5954 5956 5958 5960 5961 5962 5962 5963 5964 5965 5965 5966 5966 5967 5967 5968 5967 5967 5968 5968 5966 5966 5965 5965
5898 5901 5907 5914 5918 5919 5920 5924 5928 5932 5933 5935 5936 5938 5942 5945 5947 5949 5952 5952 5953 5954 5955 5957 5958 5959 5960 5961 5962 5963 5964 5963 5964 5965 5965 5965 5964 5964 5964 5964 5962 5961 5961
5890 5893 5899 5904 5912 5913 5914 5917 5921 5925 5928 5930 5933 5935 5938 5940 5942 5944 5945 5947 5948 5949 5951 5952 5954 5955 5956 5957 5958 5959 5961 5961 5961 5961 5961 5961 5961 5962 5961 5961 5960 5959 5958
5883 5885 5889 5895 5904 5907 5905 5909 5914 5917 5921 5923 5926 5929 5932 5935 5937 5939 5942 5943 5943 5943 5944 5946 5948 5949 5951 5953 5955 5955 5955 5955 5956 5957 5956 5955 5955 5956 5956 5956 5956 5955 5954
5876 5883 5890 5894 5897 5898 5898 5901 5906 5908 5912 5915 5918 5921 5924 5927 5930 5933 5936 5937 5938 5940 5940 5941 5943 5944 5946 5947 5948 5948 5949 5950 5951 5952 5953 5952 5951 5950 5951 5951 5951 5951 5950
5871 5878 5883 5888 5891 5893 5894 5895 5899 5902 5906 5908 5911 5914 5915 5918 5921 5923 5926 5929 5931 5933 5934 5936 5937 5937 5940 5942 5943 5943 5944 5944 5946 5948 5948 5948 5947 5946 5946 5946 5945 5946 5946
5870 5875 5879 5882 5885 5886 5889 5891 5892 5894 5897 5899 5901 5903 5905 5908 5911 5913 5916 5920 5923 5924 5925 5927 5930 5932 5934 5936 5937 5938 5938 5938 5939 5940 5942 5942 5941 5940 5939 5940 5940 5940 5940
5865 5869 5872 5876 5879 5881 5883 5886 5887 5889 5890 5890 5890 5893 5897 5899 5901 5904 5906 5910 5912 5914 5916 5918 5920 5922 5924 5925 5927 5930 5930 5931 5931 5932 5932 5933 5933 5933 5932 5932 5932 5932 5932
5859 5862 5864 5866 5870 5873 5876 5878 5880 5882 5882 5884 5884 5883 5885 5888 5891 5893 5895 5897 5900 5904 5905 5906 5908 5911 5914 5916 5917 5918 5920 5921 5922 5923 5924 5924 5923 5924 5923 5923 5923 5922 5922
5849 5852 5855 5858 5861 5863 5865 5867 5869 5872 5873 5875 5876 5877 5878 5878 5882 5883 5884 5886 5888 5890 5893 5895 5896 5900 5901 5903 5905 5906 5907 5909 5910 5911 5913 5914 5914 5913 5913 5913 5913 5913 5913
5838 5840 5843 5847 5849 5852 5854 5856 5857 5859 5861 5863 5864 5866 5869 5871 5873 5876 5876 5874 5874 5878 5881 5883 5884 5886 5887 5891 5892 5894 5895 5896 5897 5898 5901 5902 5902 5903 5902 5901 5902 5901 5902
5826 5829 5830 5833 5836 5839 5842 5844 5845 5847 5849 5850 5852 5854 5856 5858 5859 5860 5863 5864 5864 5867 5867 5872 5872 5874 5875 5877 5878 5879 5880 5883 5884 5885 5886 5887 5889 5890 5890 5889 5889 5888 5889
5811 5813 5816 5819 5821 5824 5826 5829 5831 5833 5835 5836 5839 5840 5843 5844 5845 5847 5848 5850 5851 5852 5855 5857 5859 5860 5862 5864 5864 5865 5866 5867 5869 5870 5870 5872 5874 5875 5877 5876 5876 5875 5876
5798 5801 5803 5806 5808 5810 5812 5814 5817 5818 5820 5821 5823 5825 5828 5830 5831 5832 5834 5835 5838 5840 5841 5843 5845 5846 5847 5849 5850 5851 5852 5853 5854 5856 5856 5856 5857 5859 5861 5862 5862 5861 5862
5784 5787 5789 5792 5794 5796 5798 5799 5800 5802 5805 5806 5807 5809 5812 5813 5814 5817 5819 5820 5822 5824 5826 5828 5829 5830 5832 5833 5834 5836 5837 5837 5838 5840 5840 5841 5841 5843 5843 5845 5846 5847 5847
5769 5771 5774 5776 5779 5781 5783 5784 5786 5787 5787 5788 5790 5792 5794 5795 5797 5799 5801 5802 5804 5805 5806 5809 5811 5812 5814 5816 5817 5819 5820 5821 5822 5822 5823 5824 5824 5826 5827 5828 5829 5830 5831
5753 5756 5759 5761 5763 5765 5766 5768 5769 5770 5770 5771 5771 5772 5774 5777 5777 5778 5780 5782 5784 5785 5787 5788 5790 5791 5793 5795 5797 5798 5800 5802 5803 5803 5804 5805 5806 5807 5809 5810 5810 5812 5813
5739 5741 5743 5746 5747 5748 5749 5750 5751 5751 5752 5753 5754 5755 5756 5756 5757 5758 5759 5759 5760 5762 5763 5765 5767 5768 5769 5771 5773 5775 5777 5779 5780 5781 5782 5784 5785 5787 5787 5790 5791 5792 5793
5722 5723 5725 5727 5729 5730 5732 5734 5735 5735 5735 5736 5736 5736 5736 5737 5737 5737 5737 5737 5738 5738 5738 5741 5742 5744 5745 5746 5747 5748 5751 5753 5754 5755 5757 5759 5761 5763 5764 5766 5768 5769 5770
5705 5706 5708 5710 5711 5712 5713 5715 5716 5717 5718 5719 5719 5719 5718 5717 5716 5715 5714 5714 5714 5715 5714 5714 5714 5717 5719 5721 5722 5721 5723 5725 5725 5725 5727 5730 5733 5736 5738 5740 5742 5744 5745
5689 5691 5693 5695 5696 5697 5697 5698 5698 5699 5699 5699 5698 5697 5696 5695 5694 5692 5690 5689 5688 5688 5689 5689 5689 5689 5689 5690 5691 5691 5692 5693 5693 5694 5696 5700 5703 5706 5707 5710 5714 5716 5717
5676 5677 5679 5680 5681 5682 5682 5682 5682 5682 5680 5679 5678 5676 5674 5672 5670 5667 5665 5663 5661 5660 5659 5658 5658 5658 5658 5659 5660 5661 5661 5661 5661 5662 5663 5666 5671 5674 5676 5678 5681 5684 5688
5661 5664 5666 5667 5668 5669 5669 5669 5667 5666 5664 5661 5659 5656 5653 5649 5645 5640 5635 5632 5629 5628 5627 5626 5625 5625 5625 5626 5626 5627 5628 5628 5629 5628 5629 5633 5637 5641 5644 5647 5650 5653 5657